This is the latest recevied weather packets stored in our database for station/object 9M2SAR-10. If no packets are shown the sender has not sent any weather packets the latest 10 day(s).
| Time | Temp. | Humidity | Pressure | Rain* | Wind** | Luminosity | Snow |
|---|---|---|---|---|---|---|---|
| 1777617976 | 35° C | 100% | 1008.4 hPa | - | - | - | - |
| 1777617076 | 34.44° C | 100% | 1009 hPa | - | - | - | - |
| 1777616176 | 35° C | 100% | 1009 hPa | - | - | - | - |
| 1777615276 | 34.44° C | 100% | 1009.5 hPa | - | - | - | - |
| 1777614376 | 34.44° C | 100% | 1010.1 hPa | - | - | - | - |
| 1777613476 | 36.11° C | 100% | 1010.1 hPa | - | - | - | - |
| 1777612576 | 35.56° C | 100% | 1010.4 hPa | - | - | - | - |
| 1777611676 | 36.11° C | 100% | 1010.6 hPa | - | - | - | - |
| 1777610776 | 34.44° C | 100% | 1010.9 hPa | - | - | - | - |
| 1777609876 | 35° C | 100% | 1011.3 hPa | - | - | - | - |
| 1777608975 | 35° C | 100% | 1011.6 hPa | - | - | - | - |
| 1777608075 | 33.89° C | 100% | 1011.8 hPa | - | - | - | - |
| 1777607175 | 33.33° C | 100% | 1011.9 hPa | - | - | - | - |
| 1777606275 | 33.33° C | 100% | 1011.8 hPa | - | - | - | - |
| 1777605375 | 33.33° C | 100% | 1011.9 hPa | - | - | - | - |
| 1777604475 | 31.67° C | 100% | 1012.1 hPa | - | - | - | - |
| 1777603575 | 31.67° C | 100% | 1012 hPa | - | - | - | - |
| 1777602675 | 30.56° C | 100% | 1011.9 hPa | - | - | - | - |
| 1777601775 | 30.56° C | 100% | 1011.6 hPa | - | - | - | - |
| 1777600875 | 30° C | 100% | 1011.4 hPa | - | - | - | - |
| 1777599975 | 28.89° C | 100% | 1011 hPa | - | - | - | - |
| 1777599075 | 28.89° C | 100% | 1010.9 hPa | - | - | - | - |
| 1777598175 | 28.33° C | 100% | 1010.6 hPa | - | - | - | - |
| 1777597274 | 27.78° C | 100% | 1010.5 hPa | - | - | - | - |
| 1777596374 | 27.22° C | 100% | 1010.5 hPa | - | - | - | - |
* Rain since midnight (hover to see other rain measurements)
** Current wind speed in m/s (hover to see current wind gust speed)